| time (UTC) | temp C | wind direction | speed KPH | gust KPH | rain 1hr cm | rain 24hr cm | rain mn cm | humidity % | barometer mb |
| 20260506232809 | 12 | 300 | 8.0 | 20.9 | 0.00 | 0.00 | 0.00 | 43 | 1010.2 |
| 20260506232308 | 12 | 292 | 8.0 | 19.3 | 0.00 | 0.00 | 0.00 | 43 | 1010.2 |
| 20260506231811 | 12 | 315 | 8.0 | 19.3 | 0.00 | 0.00 | 0.00 | 43 | 1010.1 |
| 20260506231313 | 12 | 308 | 9.7 | 22.5 | 0.00 | 0.00 | 0.00 | 43 | 1010.1 |
| 20260506230809 | 12 | 215 | 9.7 | 22.5 | 0.00 | 0.00 | 0.00 | 43 | 1010.1 |
| 20260506230258 | 12 | 269 | 6.4 | 19.3 | 0.00 | 0.00 | 0.00 | 42 | 1009.8 |
| 20260506225755 | 12 | 225 | 8.0 | 20.9 | 0.00 | 0.00 | 0.00 | 42 | 1009.8 |
| 20260506225249 | 12 | 292 | 8.0 | 20.9 | 0.00 | 0.00 | 0.00 | 42 | 1009.8 |
| 20260506224736 | 12 | 325 | 8.0 | 20.9 | 0.00 | 0.00 | 0.00 | 42 | 1009.9 |
| 20260506224235 | 12 | 214 | 8.0 | 19.3 | 0.00 | 0.00 | 0.00 | 42 | 1009.9 |
| 20260506223731 | 12 | 274 | 9.7 | 19.3 | 0.00 | 0.00 | 0.00 | 43 | 1009.9 |
| 20260506223225 | 12 | 246 | 11.3 | 25.7 | 0.00 | 0.00 | 0.00 | 42 | 1009.8 |
| 20260506222718 | 12 | 284 | 9.7 | 22.5 | 0.00 | 0.00 | 0.00 | 41 | 1009.8 |
| 20260506222212 | 13 | 250 | 9.7 | 22.5 | 0.00 | 0.00 | 0.00 | 43 | 1009.8 |
| 20260506221707 | 12 | 283 | 9.7 | 22.5 | 0.00 | 0.00 | 0.00 | 42 | 1009.8 |
| 20260506221429 | 12 | 298 | 8.0 | 19.3 | 0.00 | 0.00 | 0.00 | 42 | 1009.8 |
| 20260506220654 | 12 | 49 | 8.0 | 24.1 | 0.00 | 0.00 | 0.00 | 41 | 1009.8 |
| 20260506220149 | 12 | 233 | 9.7 | 24.1 | 0.00 | 0.00 | 0.00 | 41 | 1009.8 |
| 20260506215642 | 13 | 263 | 11.3 | 20.9 | 0.00 | 0.00 | 0.00 | 41 | 1009.8 |
| 20260506215136 | 13 | 267 | 12.9 | 24.1 | 0.00 | 0.00 | 0.00 | 41 | 1009.8 |
| 20260506214847 | 13 | 304 | 11.3 | 24.1 | 0.00 | 0.00 | 0.00 | 41 | 1009.7 |
| 20260506214123 | 13 | 228 | 9.7 | 20.9 | 0.00 | 0.00 | 0.00 | 41 | 1009.7 |
| 20260506213617 | 13 | 320 | 11.3 | 40.2 | 0.00 | 0.00 | 0.00 | 42 | 1009.7 |
| 20260506213111 | 13 | 269 | 14.5 | 40.2 | 0.00 | 0.00 | 0.00 | 40 | 1009.7 |
| 20260506212605 | 13 | 246 | 12.9 | 27.4 | 0.00 | 0.00 | 0.00 | 40 | 1009.7 |
| 20260506212059 | 13 | 247 | 12.9 | 25.7 | 0.00 | 0.00 | 0.00 | 39 | 1009.7 |
| 20260506211553 | 13 | 284 | 11.3 | 24.1 | 0.00 | 0.00 | 0.00 | 41 | 1009.7 |
| 20260506211043 | 13 | 290 | 11.3 | 27.4 | 0.00 | 0.00 | 0.00 | 40 | 1009.7 |
| 20260506210541 | 13 | 263 | 11.3 | 27.4 | 0.00 | 0.00 | 0.00 | 41 | 1009.7 |
| 20260506210040 | 13 | 267 | 11.3 | 25.7 | 0.00 | 0.00 | 0.00 | 41 | 1009.8 |
| 20260506205540 | 13 | 271 | 11.3 | 25.7 | 0.00 | 0.00 | 0.00 | 41 | 1009.8 |
| 20260506205040 | 13 | 237 | 9.7 | 24.1 | 0.00 | 0.00 | 0.00 | 40 | 1009.8 |
| 20260506204540 | 13 | 291 | 11.3 | 24.1 | 0.00 | 0.00 | 0.00 | 43 | 1009.8 |
| 20260506204310 | 13 | 289 | 11.3 | 22.5 | 0.00 | 0.00 | 0.00 | 42 | 1009.8 |
| 20260506203540 | 13 | 263 | 9.7 | 22.5 | 0.00 | 0.00 | 0.00 | 40 | 1009.8 |
| 20260506203041 | 13 | 238 | 9.7 | 22.5 | 0.00 | 0.00 | 0.00 | 41 | 1009.9 |
| 20260506202801 | 13 | 248 | 8.0 | 20.9 | 0.00 | 0.00 | 0.00 | 42 | 1009.9 |
| 20260506202043 | 12 | 221 | 8.0 | 22.5 | 0.00 | 0.00 | 0.00 | 44 | 1009.9 |
| 20260506201544 | 12 | 278 | 9.7 | 24.1 | 0.00 | 0.00 | 0.00 | 42 | 1010.2 |
| 20260506201040 | 12 | 244 | 9.7 | 24.1 | 0.00 | 0.00 | 0.00 | 44 | 1010.2 |
| 20260506200540 | 13 | 271 | 9.7 | 22.5 | 0.00 | 0.00 | 0.00 | 45 | 1010.2 |
| 20260506200040 | 12 | 259 | 9.7 | 22.5 | 0.00 | 0.00 | 0.00 | 44 | 1010.3 |
| 20260506195539 | 12 | 286 | 9.7 | 27.4 | 0.00 | 0.00 | 0.00 | 44 | 1010.3 |
| 20260506195039 | 12 | 219 | 9.7 | 27.4 | 0.00 | 0.00 | 0.00 | 44 | 1010.3 |
| 20260506194802 | 12 | 160 | 9.7 | 20.9 | 0.00 | 0.00 | 0.00 | 44 | 1010.3 |
| 20260506194022 | 12 | 311 | 9.7 | 20.9 | 0.00 | 0.00 | 0.00 | 45 | 1010.3 |
| 20260506193511 | 12 | 254 | 11.3 | 22.5 | 0.00 | 0.00 | 0.00 | 44 | 1010.3 |
| 20260506193012 | 12 | 227 | 11.3 | 30.6 | 0.00 | 0.00 | 0.00 | 45 | 1010.3 |
| 20260506192512 | 12 | 252 | 9.7 | 30.6 | 0.00 | 0.00 | 0.00 | 45 | 1010.3 |
| 20260506192012 | 12 | 264 | 8.0 | 17.7 | 0.00 | 0.00 | 0.00 | 48 | 1010.3 |
| 20260506191512 | 12 | 254 | 9.7 | 17.7 | 0.00 | 0.00 | 0.00 | 48 | 1010.5 |
| 20260506191011 | 12 | 217 | 9.7 | 22.5 | 0.00 | 0.00 | 0.00 | 49 | 1010.5 |
| 20260506190732 | 12 | 265 | 8.0 | 22.5 | 0.00 | 0.00 | 0.00 | 47 | 1010.5 |
| 20260506190016 | 12 | 315 | 9.7 | 22.5 | 0.00 | 0.00 | 0.00 | 48 | 1010.5 |
| 20260506185511 | 12 | 246 | 9.7 | 22.5 | 0.00 | 0.00 | 0.00 | 46 | 1010.5 |
| 20260506185500 | 12 | 235 | 6.4 | 16.1 | 0.00 | 0.00 | 0.00 | 48 | 1010.5 |
| 20260506184504 | 12 | 287 | 8.0 | 20.9 | 0.00 | 0.00 | 0.00 | 48 | 1010.3 |
| 20260506183958 | 12 | 227 | 9.7 | 20.9 | 0.00 | 0.00 | 0.00 | 46 | 1010.3 |
| 20260506183452 | 11 | 226 | 11.3 | 20.9 | 0.00 | 0.00 | 0.00 | 46 | 1010.3 |
| 20260506182941 | 12 | 234 | 9.7 | 20.9 | 0.00 | 0.00 | 0.00 | 46 | 1010.3 |
| 20260506182440 | 12 | 285 | 8.0 | 27.4 | 0.00 | 0.00 | 0.00 | 47 | 1010.3 |
| 20260506181934 | 12 | 266 | 8.0 | 27.4 | 0.00 | 0.00 | 0.00 | 47 | 1010.4 |
| 20260506181428 | 12 | 213 | 9.7 | 17.7 | 0.00 | 0.00 | 0.00 | 45 | 1010.4 |
| 20260506181141 | 12 | 236 | 8.0 | 17.7 | 0.00 | 0.00 | 0.00 | 44 | 1010.4 |
| 20260506180641 | 12 | 254 | 6.4 | 19.3 | 0.00 | 0.00 | 0.00 | 45 | 1010.5 |
| 20260506180353 | 12 | 333 | 6.4 | 19.3 | 0.00 | 0.00 | 0.00 | 43 | 1010.5 |
| 20260506175359 | 12 | 236 | 6.4 | 16.1 | 0.00 | 0.00 | 0.00 | 45 | 1010.5 |
| 20260506174858 | 12 | 273 | 8.0 | 19.3 | 0.00 | 0.00 | 0.00 | 43 | 1010.8 |
| 20260506174352 | 12 | 232 | 9.7 | 27.4 | 0.00 | 0.00 | 0.00 | 44 | 1010.8 |
| 20260506173846 | 12 | 263 | 9.7 | 27.4 | 0.00 | 0.00 | 0.00 | 44 | 1010.8 |
| 20260506173340 | 12 | 218 | 8.0 | 20.9 | 0.00 | 0.00 | 0.00 | 43 | 1010.8 |
| 20260506172829 | 12 | 282 | 8.0 | 19.3 | 0.00 | 0.00 | 0.00 | 43 | 1010.8 |
| 20260506172328 | 12 | 204 | 8.0 | 22.5 | 0.00 | 0.00 | 0.00 | 42 | 1010.8 |
| 20260506171823 | 12 | 286 | 8.0 | 22.5 | 0.00 | 0.00 | 0.00 | 41 | 1010.7 |
| 20260506171319 | 12 | 282 | 6.4 | 17.7 | 0.00 | 0.00 | 0.00 | 42 | 1010.7 |
| 20260506170811 | 12 | 258 | 6.4 | 16.1 | 0.00 | 0.00 | 0.00 | 45 | 1010.7 |
| 20260506170300 | 12 | 245 | 8.0 | 16.1 | 0.00 | 0.00 | 0.00 | 42 | 1010.4 |
| 20260506165759 | 12 | 236 | 8.0 | 24.1 | 0.00 | 0.00 | 0.00 | 42 | 1010.4 |
| 20260506165512 | 12 | 317 | 8.0 | 24.1 | 0.00 | 0.00 | 0.00 | 41 | 1010.4 |
| 20260506164745 | 12 | 300 | 8.0 | 16.1 | 0.00 | 0.00 | 0.00 | 43 | 1010.4 |
| 20260506164240 | 12 | 5 | 6.4 | 16.1 | 0.00 | 0.00 | 0.00 | 42 | 1010.4 |
| 20260506163729 | 12 | 338 | 6.4 | 16.1 | 0.00 | 0.00 | 0.00 | 43 | 1010.4 |
| 20260506163227 | 11 | 284 | 8.0 | 16.1 | 0.00 | 0.00 | 0.00 | 43 | 1010.3 |
| 20260506162950 | 12 | 205 | 8.0 | 16.1 | 0.00 | 0.00 | 0.00 | 42 | 1010.3 |
| 20260506162216 | 12 | 316 | 8.0 | 16.1 | 0.00 | 0.00 | 0.00 | 42 | 1010.3 |
| 20260506161710 | 12 | 338 | 8.0 | 16.1 | 0.00 | 0.00 | 0.00 | 44 | 1010.3 |
| 20260506161204 | 12 | 279 | 6.4 | 12.9 | 0.00 | 0.00 | 0.00 | 44 | 1010.3 |
| 20260506160659 | 11 | 241 | 6.4 | 14.5 | 0.00 | 0.00 | 0.00 | 44 | 1010.3 |
| 20260506160420 | 11 | 281 | 8.0 | 14.5 | 0.00 | 0.00 | 0.00 | 43 | 1010.3 |
| 20260506155917 | 11 | 261 | 6.4 | 14.5 | 0.00 | 0.00 | 0.00 | 44 | 1010.3 |
| 20260506155156 | 11 | 271 | 6.4 | 12.9 | 0.00 | 0.00 | 0.00 | 44 | 1010.3 |
| 20260506154657 | 11 | 11 | 6.4 | 12.9 | 0.00 | 0.00 | 0.00 | 45 | 1010.3 |
| 20260506154157 | 11 | 220 | 6.4 | 11.3 | 0.00 | 0.00 | 0.00 | 47 | 1010.3 |
| 20260506153657 | 11 | 209 | 4.8 | 12.9 | 0.00 | 0.00 | 0.00 | 47 | 1010.3 |
| 20260506153157 | 11 | 256 | 4.8 | 12.9 | 0.00 | 0.00 | 0.00 | 47 | 1010.3 |
| 20260506152921 | 11 | 263 | 4.8 | 11.3 | 0.00 | 0.00 | 0.00 | 47 | 1010.3 |
| 20260506152156 | 11 | 355 | 4.8 | 11.3 | 0.00 | 0.00 | 0.00 | 49 | 1010.3 |
| 20260506151656 | 11 | 265 | 4.8 | 12.9 | 0.00 | 0.00 | 0.00 | 48 | 1010.7 |
| 20260506151158 | 11 | 243 | 6.4 | 12.9 | 0.00 | 0.00 | 0.00 | 49 | 1010.7 |
| 20260506150652 | 11 | 243 | 4.8 | 12.9 | 0.00 | 0.00 | 0.00 | 48 | 1010.7 |
| 20260506150138 | 11 | 265 | 3.2 | 11.3 | 0.00 | 0.00 | 0.00 | 49 | 1010.5 |
| 20260506145627 | 11 | 238 | 3.2 | 8.0 | 0.00 | 0.00 | 0.00 | 49 | 1010.5 |
| 20260506145116 | 10 | 233 | 1.6 | 8.0 | 0.00 | 0.00 | 0.00 | 50 | 1010.5 |
| 20260506144602 | 10 | 161 | 1.6 | 8.0 | 0.00 | 0.00 | 0.00 | 52 | 1010.7 |
| 20260506144051 | 10 | 253 | 3.2 | 9.7 | 0.00 | 0.00 | 0.00 | 52 | 1010.7 |
| 20260506144038 | 11 | 234 | 3.2 | 9.7 | 0.00 | 0.00 | 0.00 | 51 | 1010.7 |
| 20260506143037 | 11 | 211 | 0.0 | 4.8 | 0.00 | 0.00 | 0.00 | 52 | 1010.7 |
| 20260506142531 | 10 | 114 | 0.0 | 3.2 | 0.00 | 0.00 | 0.00 | 51 | 1010.7 |
| 20260506142025 | 10 | 114 | 1.6 | 3.2 | 0.00 | 0.00 | 0.00 | 53 | 1010.7 |
| 20260506141515 | 10 | 114 | 1.6 | 3.2 | 0.00 | 0.00 | 0.00 | 52 | 1010.5 |
| 20260506141013 | 10 | 83 | 0.0 | 3.2 | 0.00 | 0.00 | 0.00 | 54 | 1010.5 |
| 20260506140508 | 10 | 83 | 0.0 | 0.0 | 0.00 | 0.00 | 0.00 | 54 | 1010.5 |
| 20260506140001 | 9 | 35 | 0.0 | 0.0 | 0.00 | 0.00 | 0.00 | 56 | 1010.3 |
| 20260506135456 | 9 | 35 | 0.0 | 0.0 | 0.00 | 0.00 | 0.00 | 57 | 1010.3 |
| 20260506135208 | 9 | 35 | 0.0 | 0.0 | 0.00 | 0.00 | 0.00 | 57 | 1010.2 |
| 20260506134444 | 8 | 35 | 0.0 | 3.2 | 0.00 | 0.00 | 0.00 | 57 | 1010.2 |
| 20260506134150 | 8 | 36 | 1.6 | 3.2 | 0.00 | 0.00 | 0.00 | 60 | 1010.2 |
| 20260506133431 | 8 | 35 | 1.6 | 4.8 | 0.00 | 0.00 | 0.00 | 60 | 1009.8 |
| 20260506132924 | 8 | 35 | 1.6 | 4.8 | 0.00 | 0.00 | 0.00 | 60 | 1009.8 |
| 20260506132418 | 8 | 29 | 1.6 | 6.4 | 0.00 | 0.00 | 0.00 | 60 | 1009.8 |
| 20260506131912 | 8 | 26 | 1.6 | 6.4 | 0.00 | 0.00 | 0.00 | 61 | 1009.7 |
| 20260506131413 | 8 | 62 | 1.6 | 6.4 | 0.00 | 0.00 | 0.00 | 63 | 1009.7 |
| 20260506130912 | 8 | 22 | 1.6 | 6.4 | 0.00 | 0.00 | 0.00 | 63 | 1009.7 |
| 20260506130636 | 8 | 28 | 1.6 | 4.8 | 0.00 | 0.00 | 0.00 | 65 | 1009.6 |
| 20260506125910 | 8 | 5 | 0.0 | 3.2 | 0.00 | 0.00 | 0.00 | 66 | 1009.6 |
| 20260506125410 | 7 | 5 | 0.0 | 3.2 | 0.00 | 0.00 | 0.00 | 67 | 1009.6 |
| 20260506124910 | 7 | 5 | 1.6 | 4.8 | 0.00 | 0.00 | 0.00 | 69 | 1009.5 |
| 20260506124408 | 7 | 5 | 1.6 | 6.4 | 0.00 | 0.00 | 0.00 | 69 | 1009.5 |
| 20260506123909 | 7 | 5 | 1.6 | 6.4 | 0.00 | 0.00 | 0.00 | 70 | 1009.5 |
| 20260506123628 | 7 | 30 | 0.0 | 4.8 | 0.00 | 0.00 | 0.00 | 70 | 1009.2 |
| 20260506122908 | 7 | 30 | 0.0 | 3.2 | 0.00 | 0.00 | 0.00 | 71 | 1009.2 |
| 20260506122408 | 6 | 34 | 0.0 | 0.0 | 0.00 | 0.00 | 0.00 | 71 | 1009.2 |
| 20260506121906 | 6 | 34 | 0.0 | 1.6 | 0.00 | 0.00 | 0.00 | 71 | 1009.2 |
| 20260506121404 | 6 | 34 | 0.0 | 3.2 | 0.00 | 0.00 | 0.00 | 71 | 1009.2 |
| 20260506120902 | 6 | 34 | 0.0 | 3.2 | 0.00 | 0.00 | 0.00 | 71 | 1009.2 |
| 20260506120626 | 6 | 34 | 1.6 | 3.2 | 0.00 | 0.00 | 0.00 | 70 | 1009.1 |
| 20260506115901 | 6 | 34 | 1.6 | 4.8 | 0.00 | 0.00 | 0.00 | 70 | 1009.1 |
| 20260506115400 | 6 | 34 | 1.6 | 4.8 | 0.00 | 0.00 | 0.00 | 70 | 1009.1 |
| 20260506115123 | 6 | 55 | 0.0 | 1.6 | 0.00 | 0.00 | 0.00 | 70 | 1008.8 |
| 20260506114401 | 6 | 55 | 0.0 | 3.2 | 0.00 | 0.00 | 0.00 | 71 | 1008.8 |
| 20260506113857 | 6 | 55 | 0.0 | 3.2 | 0.00 | 0.00 | 0.00 | 70 | 1008.8 |
| 20260506113350 | 6 | 55 | 0.0 | 3.2 | 0.00 | 0.00 | 0.00 | 69 | 1008.6 |
| 20260506112842 | 6 | 55 | 0.0 | 3.2 | 0.00 | 0.00 | 0.00 | 69 | 1008.6 |
| 20260506112339 | 6 | 55 | 0.0 | 3.2 | 0.00 | 0.00 | 0.00 | 69 | 1008.6 |
| 20260506111830 | 5 | 55 | 0.0 | 3.2 | 0.00 | 0.00 | 0.00 | 69 | 1008.5 |
| 20260506111326 | 5 | 55 | 0.0 | 3.2 | 0.00 | 0.00 | 0.00 | 69 | 1008.5 |
| 20260506110814 | 5 | 55 | 0.0 | 3.2 | 0.00 | 0.00 | 0.00 | 70 | 1008.5 |
| 20260506110303 | 5 | 55 | 0.0 | 1.6 | 0.00 | 0.00 | 0.00 | 70 | 1008.3 |
| 20260506105752 | 5 | 55 | 0.0 | 1.6 | 0.00 | 0.00 | 0.00 | 71 | 1008.3 |
| 20260506105238 | 5 | 55 | 0.0 | 0.0 | 0.00 | 0.00 | 0.00 | 71 | 1008.3 |
| 20260506104727 | 5 | 55 | 0.0 | 0.0 | 0.00 | 0.00 | 0.00 | 70 | 1008.2 |
| 20260506104215 | 5 | 55 | 0.0 | 0.0 | 0.00 | 0.00 | 0.00 | 70 | 1008.2 |
| 20260506103702 | 5 | 55 | 1.6 | 3.2 | 0.00 | 0.00 | 0.00 | 70 | 1008.2 |
| 20260506103150 | 5 | 55 | 1.6 | 4.8 | 0.00 | 0.00 | 0.00 | 70 | 1007.8 |
| 20260506102640 | 5 | 55 | 0.0 | 4.8 | 0.00 | 0.00 | 0.00 | 69 | 1007.8 |
| 20260506102126 | 5 | 55 | 1.6 | 4.8 | 0.00 | 0.00 | 0.00 | 69 | 1007.8 |
| 20260506101615 | 5 | 55 | 1.6 | 4.8 | 0.00 | 0.00 | 0.00 | 69 | 1007.6 |
| 20260506101109 | 6 | 55 | 1.6 | 4.8 | 0.00 | 0.00 | 0.00 | 69 | 1007.6 |
| 20260506100604 | 6 | 55 | 1.6 | 4.8 | 0.00 | 0.00 | 0.00 | 69 | 1007.6 |
| 20260506100050 | 6 | 48 | 0.0 | 3.2 | 0.00 | 0.00 | 0.00 | 69 | 1007.7 |
| 20260506095550 | 6 | 48 | 0.0 | 3.2 | 0.00 | 0.00 | 0.00 | 68 | 1007.7 |
| 20260506095045 | 6 | 38 | 0.0 | 0.0 | 0.00 | 0.00 | 0.00 | 68 | 1007.7 |
| 20260506094537 | 6 | 38 | 0.0 | 0.0 | 0.00 | 0.00 | 0.00 | 68 | 1007.8 |
| 20260506094033 | 6 | 38 | 0.0 | 3.2 | 0.00 | 0.00 | 0.00 | 68 | 1007.8 |
| 20260506093520 | 6 | 38 | 0.0 | 4.8 | 0.00 | 0.00 | 0.00 | 67 | 1007.8 |
| 20260506093020 | 6 | 57 | 1.6 | 3.2 | 0.00 | 0.00 | 0.00 | 67 | 1007.8 |
| 20260506092515 | 6 | 58 | 1.6 | 3.2 | 0.00 | 0.00 | 0.00 | 67 | 1007.8 |
| 20260506092008 | 6 | 57 | 0.0 | 3.2 | 0.00 | 0.00 | 0.00 | 66 | 1007.8 |
| 20260506091504 | 6 | 56 | 0.0 | 3.2 | 0.00 | 0.00 | 0.00 | 66 | 1007.7 |
| 20260506090956 | 6 | 57 | 0.0 | 3.2 | 0.00 | 0.00 | 0.00 | 65 | 1007.7 |
| 20260506090716 | 6 | 56 | 0.0 | 3.2 | 0.00 | 0.00 | 0.00 | 65 | 1007.7 |
| 20260506085946 | 6 | 56 | 1.6 | 3.2 | 0.00 | 0.00 | 0.00 | 65 | 1007.7 |
| 20260506085439 | 6 | 56 | 1.6 | 3.2 | 0.00 | 0.00 | 0.00 | 64 | 1007.7 |
| 20260506085152 | 7 | 59 | 1.6 | 4.8 | 0.00 | 0.00 | 0.00 | 64 | 1007.6 |
| 20260506084426 | 7 | 59 | 1.6 | 8.0 | 0.00 | 0.00 | 0.00 | 64 | 1007.6 |
| 20260506083921 | 7 | 67 | 1.6 | 8.0 | 0.00 | 0.00 | 0.00 | 63 | 1007.6 |
| 20260506083628 | 7 | 46 | 1.6 | 4.8 | 0.00 | 0.00 | 0.00 | 62 | 1007.6 |
| 20260506082908 | 7 | 34 | 1.6 | 4.8 | 0.00 | 0.00 | 0.00 | 62 | 1007.6 |
| 20260506082402 | 7 | 32 | 1.6 | 4.8 | 0.00 | 0.00 | 0.00 | 61 | 1007.6 |
| 20260506081855 | 7 | 48 | 3.2 | 11.3 | 0.00 | 0.00 | 0.00 | 60 | 1007.5 |
| 20260506081351 | 7 | 49 | 3.2 | 11.3 | 0.00 | 0.00 | 0.00 | 60 | 1007.5 |
| 20260506080847 | 7 | 60 | 4.8 | 12.9 | 0.00 | 0.00 | 0.00 | 60 | 1007.5 |
| 20260506080339 | 7 | 56 | 4.8 | 12.9 | 0.00 | 0.00 | 0.00 | 59 | 1007.3 |
| 20260506073018 | 8 | 336 | 4.8 | 11.3 | 0.00 | 0.00 | 0.00 | 58 | 1006.7 |
| 20260506072249 | 8 | 5 | 4.8 | 11.3 | 0.00 | 0.00 | 0.00 | 58 | 1006.7 |
| 20260506071743 | 8 | 5 | 4.8 | 11.3 | 0.00 | 0.00 | 0.00 | 58 | 1006.6 |
| 20260506071505 | 8 | 355 | 4.8 | 9.7 | 0.00 | 0.00 | 0.00 | 58 | 1006.6 |
| 20260506070727 | 8 | 355 | 4.8 | 9.7 | 0.00 | 0.00 | 0.00 | 58 | 1006.6 |
| 20260506070226 | 8 | 355 | 3.2 | 6.4 | 0.00 | 0.00 | 0.00 | 59 | 1006.6 |
| 20260506062147 | 8 | 14 | 1.6 | 8.0 | 0.00 | 0.00 | 0.00 | 60 | 1006.6 |
| 20260506061647 | 8 | 0 | 3.2 | 8.0 | 0.00 | 0.00 | 0.00 | 60 | 1006.6 |
| 20260506061149 | 9 | 355 | 3.2 | 6.4 | 0.00 | 0.00 | 0.00 | 59 | 1006.6 |
| 20260506060649 | 9 | 9 | 3.2 | 6.4 | 0.00 | 0.00 | 0.00 | 59 | 1006.6 |
| 20260506060147 | 9 | 26 | 1.6 | 6.4 | 0.00 | 0.00 | 0.00 | 59 | 1006.8 |
| 20260506051048 | 10 | 270 | 1.6 | 8.0 | 0.00 | 0.00 | 0.00 | 58 | 1006.3 |
| 20260506050549 | 10 | 314 | 1.6 | 8.0 | 0.00 | 0.00 | 0.00 | 58 | 1006.3 |
| 20260506045023 | 10 | 277 | 1.6 | 4.8 | 0.00 | 0.00 | 0.00 | 58 | 1006.1 |
| 20260506044518 | 10 | 262 | 1.6 | 4.8 | 0.00 | 0.00 | 0.00 | 58 | 1006.4 |
| 20260506044005 | 10 | 261 | 0.0 | 3.2 | 0.00 | 0.00 | 0.00 | 58 | 1006.4 |
| 20260506043505 | 10 | 257 | 0.0 | 4.8 | 0.00 | 0.00 | 0.00 | 59 | 1006.4 |
| 20260506043219 | 10 | 257 | 1.6 | 4.8 | 0.00 | 0.00 | 0.00 | 58 | 1006.5 |
| 20260506042939 | 10 | 292 | 0.0 | 3.2 | 0.00 | 0.00 | 0.00 | 57 | 1006.5 |
| 20260506041947 | 10 | 292 | 0.0 | 3.2 | 0.00 | 0.00 | 0.00 | 56 | 1006.6 |
| 20260506041441 | 10 | 268 | 0.0 | 0.0 | 0.00 | 0.00 | 0.00 | 57 | 1006.6 |
| 20260506040937 | 10 | 263 | 0.0 | 0.0 | 0.00 | 0.00 | 0.00 | 57 | 1006.6 |
| 20260506040424 | 10 | 255 | 0.0 | 0.0 | 0.00 | 0.00 | 0.00 | 57 | 1006.7 |
| 20260506040152 | 10 | 281 | 0.0 | 3.2 | 0.00 | 0.00 | 0.00 | 57 | 1006.7 |
| 20260506035419 | 10 | 281 | 1.6 | 3.2 | 0.00 | 0.00 | 0.00 | 58 | 1006.7 |
| 20260506034911 | 10 | 282 | 1.6 | 4.8 | 0.00 | 0.00 | 0.00 | 56 | 1006.6 |
| 20260506034406 | 10 | 290 | 1.6 | 4.8 | 0.00 | 0.00 | 0.00 | 55 | 1006.6 |
| 20260506033856 | 10 | 290 | 1.6 | 3.2 | 0.00 | 0.00 | 0.00 | 56 | 1006.6 |
| 20260506033353 | 10 | 291 | 1.6 | 4.8 | 0.00 | 0.00 | 0.00 | 54 | 1006.5 |
| 20260506032848 | 10 | 293 | 0.0 | 4.8 | 0.00 | 0.00 | 0.00 | 55 | 1006.5 |
| 20260506032609 | 10 | 277 | 0.0 | 0.0 | 0.00 | 0.00 | 0.00 | 56 | 1006.5 |
| 20260506031836 | 10 | 277 | 0.0 | 0.0 | 0.00 | 0.00 | 0.00 | 54 | 1006.5 |
| 20260506031329 | 10 | 277 | 0.0 | 0.0 | 0.00 | 0.00 | 0.00 | 54 | 1006.5 |
| 20260506031050 | 10 | 277 | 0.0 | 0.0 | 0.00 | 0.00 | 0.00 | 55 | 1006.5 |
| 20260506030313 | 10 | 277 | 0.0 | 0.0 | 0.00 | 0.00 | 0.00 | 54 | 1006.1 |
| 20260506025812 | 10 | 277 | 0.0 | 0.0 | 0.00 | 0.00 | 0.00 | 53 | 1006.1 |
| 20260506025306 | 11 | 277 | 0.0 | 0.0 | 0.00 | 0.00 | 0.00 | 53 | 1006.1 |
| 20260506024759 | 11 | 277 | 0.0 | 3.2 | 0.00 | 0.00 | 0.00 | 53 | 1006.0 |
| 20260506024515 | 11 | 277 | 1.6 | 4.8 | 0.00 | 0.00 | 0.00 | 52 | 1006.0 |
| 20260506023744 | 11 | 277 | 1.6 | 4.8 | 0.00 | 0.00 | 0.00 | 52 | 1006.0 |
| 20260506023231 | 11 | 277 | 1.6 | 6.4 | 0.00 | 0.00 | 0.00 | 52 | 1006.0 |
| 20260506022731 | 11 | 277 | 1.6 | 6.4 | 0.00 | 0.00 | 0.00 | 52 | 1006.0 |
| 20260506022226 | 11 | 279 | 0.0 | 4.8 | 0.00 | 0.00 | 0.00 | 52 | 1006.0 |
| 20260506021718 | 11 | 279 | 0.0 | 4.8 | 0.00 | 0.00 | 0.00 | 52 | 1005.8 |
| 20260506021214 | 11 | 284 | 0.0 | 3.2 | 0.00 | 0.00 | 0.00 | 51 | 1005.8 |
| 20260506020700 | 11 | 292 | 1.6 | 4.8 | 0.00 | 0.00 | 0.00 | 52 | 1005.8 |
| 20260506020202 | 11 | 292 | 1.6 | 4.8 | 0.00 | 0.00 | 0.00 | 51 | 1005.7 |
| 20260506015655 | 11 | 292 | 0.0 | 0.0 | 0.00 | 0.00 | 0.00 | 51 | 1005.7 |
| 20260506015149 | 11 | 292 | 0.0 | 0.0 | 0.00 | 0.00 | 0.00 | 51 | 1005.7 |
| 20260506014644 | 11 | 292 | 0.0 | 0.0 | 0.00 | 0.00 | 0.00 | 51 | 1005.5 |
| 20260506014132 | 11 | 292 | 0.0 | 4.8 | 0.00 | 0.00 | 0.00 | 51 | 1005.5 |
| 20260506013849 | 11 | 292 | 1.6 | 4.8 | 0.00 | 0.00 | 0.00 | 50 | 1005.5 |
| 20260506013116 | 11 | 321 | 1.6 | 4.8 | 0.00 | 0.00 | 0.00 | 50 | 1005.2 |
| 20260506012830 | 11 | 298 | 1.6 | 4.8 | 0.00 | 0.00 | 0.00 | 50 | 1005.2 |
| 20260506012106 | 11 | 298 | 0.0 | 3.2 | 0.00 | 0.00 | 0.00 | 50 | 1005.2 |
| 20260506011827 | 11 | 297 | 0.0 | 6.4 | 0.00 | 0.00 | 0.00 | 49 | 1005.2 |
| 20260506011106 | 11 | 297 | 1.6 | 6.4 | 0.00 | 0.00 | 0.00 | 50 | 1005.2 |
| 20260506010605 | 11 | 284 | 1.6 | 6.4 | 0.00 | 0.00 | 0.00 | 49 | 1005.2 |
| 20260506010104 | 11 | 275 | 0.0 | 6.4 | 0.00 | 0.00 | 0.00 | 49 | 1005.0 |
| 20260506010048 | 11 | 287 | 0.0 | 6.4 | 0.00 | 0.00 | 0.00 | 48 | 1005.0 |
| 20260506005103 | 11 | 288 | 0.0 | 3.2 | 0.00 | 0.00 | 0.00 | 48 | 1005.0 |
| 20260506004604 | 11 | 288 | 1.6 | 4.8 | 0.00 | 0.00 | 0.00 | 48 | 1005.0 |
| 20260506004103 | 11 | 292 | 1.6 | 6.4 | 0.00 | 0.00 | 0.00 | 46 | 1005.0 |
| 20260506003555 | 11 | 296 | 1.6 | 6.4 | 0.00 | 0.00 | 0.00 | 47 | 1005.0 |
| 20260506003051 | 12 | 257 | 1.6 | 4.8 | 0.00 | 0.00 | 0.00 | 46 | 1004.7 |
| 20260506002541 | 12 | 258 | 1.6 | 6.4 | 0.00 | 0.00 | 0.00 | 45 | 1004.7 |
| 20260506002039 | 12 | 258 | 1.6 | 6.4 | 0.00 | 0.00 | 0.00 | 45 | 1004.7 |
| 20260506001532 | 12 | 259 | 3.2 | 6.4 | 0.00 | 0.00 | 0.00 | 45 | 1004.6 |
| 20260506001027 | 12 | 281 | 1.6 | 6.4 | 0.00 | 0.00 | 0.00 | 44 | 1004.6 |
| 20260506000520 | 12 | 340 | 1.6 | 6.4 | 0.00 | 0.00 | 0.00 | 45 | 1004.6 |
| 20260506000014 | 12 | 298 | 1.6 | 8.0 | 0.00 | 0.00 | 0.00 | 44 | 1004.5 |
| 20260505235507 | 12 | 310 | 1.6 | 8.0 | 0.00 | 0.00 | 0.00 | 44 | 1004.5 |
| 20260505234956 | 12 | 355 | 3.2 | 9.7 | 0.00 | 0.00 | 0.00 | 44 | 1004.5 |
| 20260505234455 | 12 | 328 | 4.8 | 9.7 | 0.00 | 0.00 | 0.00 | 43 | 1004.9 |
| 20260505233950 | 12 | 313 | 3.2 | 9.7 | 0.00 | 0.00 | 0.00 | 42 | 1004.9 |
| 20260505233444 | 12 | 332 | 3.2 | 9.7 | 0.00 | 0.00 | 0.00 | 42 | 1004.7 |